Location: Kaltenbach
(49.2000°N, 7.7500°E)
Time: 12:53:50
(UTC+00:00)

ATLAS 5 CENTAUR R/B - Pass Details

Date: 24 January 2020
Orbit: 550 x 1108 km, 63.4° (Epoch: 09 February)

Event Time Altitude Azimuth Distance (km) Brightness Sun altitude
Rises 18:52:17 0° 300° (WNW) 2,989 6.0 -26.0°
Reaches altitude 10° 18:55:16 10° 322° (NW) 2,174 4.8 -26.4°
Maximum altitude 18:58:30 17° 3° (N) 1,845 3.9 -27.0°
Enters shadow 18:58:32 17° 3° (N) 1,846 3.9 -27.0°
